Volver al catálogo

CZ-3C DEB

ActivoGTO
NORAD 40819·DEBRIS·🇨🇳 China

Lanzado Oct 31, 2010 desde Xichang Satellite Launch Center

Loading…

TLE

ObsoletoSource: Space-Track

Época: Sep 11, 2026, 11:46 UTC

1 40819U 10057AL  26254.49058416 -.00000309  00000-0 -82629-3 0  9995
2 40819  20.6325 310.7789 7114269  60.6941 351.3783  2.32542136 98705

Sigue CZ-3C DEB en tiempo real con AllMySat

Download on the App Store